EXPRESS-AM5

Last updated on Sun Oct 19 2025 00:02:49 GMT+0000 (Coordinated Universal Time)

1 39487U 13077A 25291.29603609 -.00000287 00000+0 00000+0 0 9999 2 39487 0.0185 235.2515 0000159 292.8498 105.5513 1.00269345 43936
UTC large
Height (km)
Speed (km/s)
/
Latitude / Longitude
Inclination (degrees)
Orbital Period (minutes)
Azimuth
Elevation
Range (km)
Doppler Factor

Next 0 passes for location: London (51.5072 / 0.1276)

Sorry there are no passes over London.